WMT409 EBCI-EPKK

Flight info

Callsign WMT409
Flight time N/A
Altitude 37000
Route SOPOK Y863 OGLOR DCT EMGOD DCT BOMBI DCT LOHRE L984 LONLI DCT ABERU L984 OKG DCT SOPAV DCT PADKA
Aircraft A20N/M-SDE2E3FGHIRWXY/LB1

Departure

Time 2026-05-01 14:49
Airport Brussels South Charleroi Airport (EBCI)

Arrival

Time N/A
Airport Kraków John Paul II International Airport (EPKK)
Time Latitude Longitude Altitude Speed Heading
2026-05-01 14:30 50.46717 4.46585 579 ft 0 kts 338°
2026-05-01 14:37 50.46713 4.46587 579 ft 1 kts 338°
2026-05-01 14:37 50.46706 4.46592 582 ft 1 kts 338°
2026-05-01 14:37 50.46699 4.46596 580 ft 1 kts 338°
2026-05-01 14:37 50.46692 4.46601 579 ft 1 kts 345°
2026-05-01 14:38 50.46684 4.46604 579 ft 1 kts 332°
2026-05-01 14:38 50.46677 4.46610 582 ft 1 kts 345°
2026-05-01 14:38 50.46670 4.46612 581 ft 1 kts 18°
2026-05-01 14:38 50.46663 4.46606 579 ft 1 kts 59°
2026-05-01 14:39 50.46661 4.46602 580 ft 0 kts 78°
2026-05-01 14:39 50.46663 4.46611 582 ft 2 kts 65°
2026-05-01 14:39 50.46667 4.46619 582 ft 0 kts 54°
2026-05-01 14:42 50.46669 4.46624 581 ft 3 kts 56°
2026-05-01 14:42 50.46691 4.46681 581 ft 9 kts 61°
2026-05-01 14:43 50.46718 4.46789 579 ft 12 kts 66°
2026-05-01 14:43 50.46757 4.46923 578 ft 15 kts 64°
2026-05-01 14:43 50.46800 4.47067 583 ft 6 kts 65°
2026-05-01 14:43 50.46816 4.47125 581 ft 7 kts 65°
2026-05-01 14:44 50.46841 4.47212 579 ft 10 kts 65°
2026-05-01 14:44 50.46913 4.47462 579 ft 15 kts 66°
2026-05-01 14:44 50.46931 4.47527 581 ft 0 kts 66°
2026-05-01 14:45 50.46931 4.47581 578 ft 9 kts 109°
2026-05-01 14:45 50.46892 4.47620 579 ft 0 kts 162°
2026-05-01 14:46 50.46882 4.47628 581 ft 5 kts 154°
2026-05-01 14:46 50.46836 4.47661 578 ft 0 kts 156°
2026-05-01 14:47 50.46832 4.47664 578 ft 2 kts 156°
2026-05-01 14:47 50.46807 4.47681 578 ft 7 kts 156°
2026-05-01 14:48 50.46676 4.47657 578 ft 14 kts 241°
2026-05-01 14:48 50.46592 4.47370 579 ft 59 kts 244°
2026-05-01 14:48 50.45996 4.45321 598 ft 149 kts 247°
2026-05-01 14:49 50.45137 4.42167 1715 ft 156 kts 242°
2026-05-01 14:49 50.44154 4.39155 2610 ft 168 kts 241°
2026-05-01 14:50 50.43434 4.36801 3227 ft 195 kts 243°
2026-05-01 14:50 50.41779 4.30927 3994 ft 231 kts 245°
2026-05-01 14:51 50.41135 4.28630 3998 ft 229 kts 240°
2026-05-01 14:51 50.38642 4.25932 4000 ft 230 kts 183°
2026-05-01 14:52 50.35810 4.27915 4178 ft 233 kts 140°
2026-05-01 14:52 50.34568 4.29586 4818 ft 238 kts 141°
2026-05-01 14:52 50.32709 4.33707 6645 ft 244 kts 97°
2026-05-01 14:53 50.32865 4.36350 7470 ft 249 kts 78°
2026-05-01 14:53 50.33300 4.39084 7989 ft 270 kts 77°
2026-05-01 14:53 50.33789 4.42025 8542 ft 286 kts 77°
2026-05-01 14:53 50.34284 4.45062 9448 ft 289 kts 78°
2026-05-01 14:54 50.34771 4.48136 10323 ft 293 kts 78°
2026-05-01 14:54 50.35262 4.51333 10823 ft 312 kts 79°
2026-05-01 14:54 50.35779 4.54760 11114 ft 335 kts 79°
2026-05-01 14:54 50.36324 4.58381 11675 ft 345 kts 79°
2026-05-01 14:55 50.36878 4.62051 12509 ft 347 kts 79°
2026-05-01 14:55 50.37437 4.65765 13308 ft 352 kts 79°
2026-05-01 14:55 50.37992 4.69460 14080 ft 355 kts 79°
2026-05-01 14:55 50.38558 4.73250 14767 ft 359 kts 79°
2026-05-01 14:56 50.39128 4.77080 15459 ft 363 kts 79°
2026-05-01 14:56 50.39703 4.80952 16146 ft 366 kts 79°
2026-05-01 14:56 50.40281 4.84856 16829 ft 370 kts 79°
2026-05-01 14:56 50.40865 4.88806 17507 ft 374 kts 79°
2026-05-01 14:57 50.41452 4.92793 18167 ft 378 kts 79°
2026-05-01 14:57 50.42640 5.00878 19443 ft 383 kts 79°
2026-05-01 14:57 50.43238 5.04960 20053 ft 385 kts 79°
2026-05-01 14:58 50.43838 5.09077 20648 ft 388 kts 79°
2026-05-01 14:58 50.44441 5.13217 21269 ft 390 kts 79°
2026-05-01 14:58 50.45046 5.17380 21862 ft 393 kts 79°
2026-05-01 14:58 50.45654 5.21579 22449 ft 396 kts 78°
2026-05-01 14:59 50.46264 5.25803 23048 ft 398 kts 78°
2026-05-01 14:59 50.46877 5.30055 23617 ft 401 kts 78°
2026-05-01 14:59 50.47412 5.34363 24044 ft 403 kts 86°
2026-05-01 14:59 50.47340 5.38750 24199 ft 403 kts 100°
2026-05-01 15:00 50.45149 5.46702 24237 ft 400 kts 128°
2026-05-01 15:00 50.43255 5.49827 24234 ft 401 kts 135°
2026-05-01 15:00 50.41258 5.52881 24232 ft 401 kts 135°
2026-05-01 15:01 50.39265 5.55941 24238 ft 401 kts 135°
2026-05-01 15:01 50.37280 5.58992 24238 ft 399 kts 135°
2026-05-01 15:01 50.35296 5.62038 24236 ft 399 kts 135°
2026-05-01 15:01 50.33308 5.65088 24236 ft 399 kts 135°
2026-05-01 15:02 50.31324 5.68129 24235 ft 399 kts 135°
2026-05-01 15:02 50.30655 5.69154 24239 ft 400 kts 135°
2026-05-01 15:02 50.27379 5.74277 24236 ft 401 kts 130°
2026-05-01 15:02 50.26257 5.76563 24235 ft 401 kts 123°
2026-05-01 15:03 50.24923 5.80376 24242 ft 400 kts 113°
2026-05-01 15:03 50.24051 5.84514 24243 ft 401 kts 105°
2026-05-01 15:03 50.23357 5.88733 24244 ft 402 kts 105°
2026-05-01 15:03 50.22652 5.92954 24242 ft 401 kts 105°
2026-05-01 15:04 50.21941 5.97174 24245 ft 401 kts 105°
2026-05-01 15:04 50.21228 6.01386 24238 ft 400 kts 105°
2026-05-01 15:04 50.20515 6.05574 24246 ft 399 kts 105°
2026-05-01 15:04 50.19802 6.09759 24245 ft 400 kts 105°
2026-05-01 15:05 50.19091 6.13972 24243 ft 402 kts 103°
2026-05-01 15:05 50.18612 6.18266 24249 ft 402 kts 96°
2026-05-01 15:05 50.18478 6.22620 24247 ft 402 kts 90°
2026-05-01 15:05 50.18669 6.26932 24245 ft 403 kts 84°
2026-05-01 15:06 50.18958 6.31288 24245 ft 403 kts 85°
2026-05-01 15:06 50.19234 6.35641 24239 ft 403 kts 85°
2026-05-01 15:06 50.19505 6.40019 24382 ft 407 kts 85°
2026-05-01 15:06 50.19775 6.44417 24949 ft 406 kts 85°
2026-05-01 15:07 50.20044 6.48821 25405 ft 410 kts 85°
2026-05-01 15:07 50.20314 6.53266 25838 ft 413 kts 85°
2026-05-01 15:07 50.20583 6.57735 26265 ft 415 kts 85°
2026-05-01 15:07 50.20853 6.62243 26691 ft 418 kts 85°
2026-05-01 15:08 50.20945 6.66786 27103 ft 421 kts 92°
2026-05-01 15:08 50.20850 6.71375 27496 ft 424 kts 92°
2026-05-01 15:08 50.20767 6.76004 27891 ft 427 kts 91°
2026-05-01 15:08 50.20687 6.80655 28258 ft 430 kts 91°
2026-05-01 15:09 50.20605 6.85342 28623 ft 433 kts 91°
2026-05-01 15:09 50.20519 6.90076 28973 ft 436 kts 91°
2026-05-01 15:09 50.20432 6.94764 29292 ft 439 kts 91°
2026-05-01 15:09 50.20340 6.99546 29626 ft 442 kts 91°
2026-05-01 15:10 50.20245 7.04361 29938 ft 445 kts 91°
2026-05-01 15:10 50.20047 7.14085 30533 ft 451 kts 91°
2026-05-01 15:10 50.19944 7.18987 30805 ft 453 kts 91°
2026-05-01 15:11 50.19839 7.23917 31078 ft 456 kts 91°
2026-05-01 15:11 50.19550 7.33857 31698 ft 459 kts 96°
2026-05-01 15:11 50.19114 7.38802 32051 ft 460 kts 98°
2026-05-01 15:12 50.18668 7.43739 32395 ft 460 kts 97°
2026-05-01 15:12 50.17785 7.53623 33100 ft 460 kts 98°
2026-05-01 15:12 50.17339 7.58569 33429 ft 460 kts 98°
2026-05-01 15:13 50.15993 7.73333 34362 ft 460 kts 98°
2026-05-01 15:14 50.15080 7.83208 34977 ft 458 kts 98°
2026-05-01 15:14 50.14623 7.88117 35240 ft 458 kts 98°
2026-05-01 15:14 50.13703 7.97925 35766 ft 457 kts 98°
2026-05-01 15:15 50.12794 8.07537 36254 ft 456 kts 98°
2026-05-01 15:15 50.11861 8.17301 36715 ft 455 kts 98°
2026-05-01 15:16 50.10921 8.27052 37180 ft 454 kts 98°
2026-05-01 15:16 50.09976 8.36766 37290 ft 453 kts 98°
2026-05-01 15:18 50.07581 8.61018 37294 ft 453 kts 98°
2026-05-01 15:19 50.05769 8.80388 37295 ft 451 kts 92°
2026-05-01 15:19 50.05926 8.95011 37296 ft 451 kts 87°
2026-05-01 15:20 50.06161 9.09651 37306 ft 450 kts 87°
2026-05-01 15:21 50.06306 9.19389 37312 ft 451 kts 87°
2026-05-01 15:21 50.06444 9.29072 37311 ft 450 kts 87°
2026-05-01 15:22 50.06635 9.43654 37316 ft 450 kts 87°
2026-05-01 15:22 50.06751 9.53386 37320 ft 449 kts 88°
2026-05-01 15:23 50.06855 9.63117 37323 ft 449 kts 88°
2026-05-01 15:23 50.06950 9.72838 37325 ft 449 kts 88°
2026-05-01 15:24 50.07041 9.82563 37325 ft 448 kts 88°
2026-05-01 15:24 50.07132 9.92193 37327 ft 447 kts 88°
2026-05-01 15:25 50.07216 10.01866 37333 ft 446 kts 88°
2026-05-01 15:25 50.07291 10.11518 37335 ft 446 kts 88°
2026-05-01 15:26 50.07332 10.21161 37332 ft 445 kts 88°
2026-05-01 15:26 50.07368 10.30797 37332 ft 444 kts 88°
2026-05-01 15:27 50.07418 10.40414 37335 ft 444 kts 88°
2026-05-01 15:28 50.07476 10.54819 37334 ft 443 kts 88°
2026-05-01 15:28 50.07503 10.64417 37334 ft 443 kts 88°
2026-05-01 15:29 50.07528 10.78748 37340 ft 443 kts 88°
2026-05-01 15:29 50.07768 10.88295 36992 ft 443 kts 68°
2026-05-01 15:30 50.10677 10.96829 37113 ft 413 kts 59°
2026-05-01 15:31 50.14201 11.13979 35560 ft 442 kts 95°
2026-05-01 15:31 50.12259 11.22960 36319 ft 438 kts 121°
2026-05-01 15:32 50.08952 11.30793 37097 ft 427 kts 111°
2026-05-01 15:32 50.07536 11.39683 37355 ft 427 kts 93°
2026-05-01 15:33 50.07306 11.53681 37354 ft 440 kts 88°
2026-05-01 15:34 50.07263 11.67996 37350 ft 440 kts 89°